Regional Weather Roundup
Issued by NWS Boston, MA

Current Version | Previous Version | Text Only | Print | Product List | Glossary Off
Versions: 1 2 3 4 5 6 7 8 9 10 11 12 13 14 15 16 17 18 19 20 21 22 23 24 25 26 27

000
ASUS41 KBOX 230810
RWRBOX

REGIONAL WEATHER ROUNDUP
NATIONAL WEATHER SERVICE TAUNTON MA
400 AM EDT SUN JUL 23 2017

NOTE:  "FAIR" INDICATES FEW OR NO CLOUDS BELOW 12,000 FEET WITH NO
SIGNIFICANT WEATHER AND/OR OBSTRUCTIONS TO VISIBILITY.

MAZALL-230900-
EASTERN MASSACHUSETTS

CITY           SKY/WX    TMP DP  RH WIND       PRES   REMARKS
BOSTON         CLOUDY    71  62  73 NE20      29.75S
BEVERLY        MOCLDY    70  56  61 NE13G23   29.77R
LAWRENCE       PTCLDY    72  55  55 NE17G24   29.79R
BEDFORD        CLOUDY    71  58  63 NE12G22   29.75S
BLUE HILL        N/A     71  63  75 N12       29.76S
NORWOOD        CLOUDY    70  68  93 CALM      29.74S
MARSHFIELD     CLOUDY    70  68  94 CALM      29.74R
PLYMOUTH       CLOUDY    70  64  81 N3        29.74F
TAUNTON        CLOUDY    68  65  90 CALM      29.73F
NEW BEDFORD    CLOUDY    68  66  93 CALM      29.73S
$$

MAZALL-230900-
CAPE COD AND THE ISLANDS

CITY           SKY/WX    TMP DP  RH WIND       PRES   REMARKS
FALMOUTH       CLOUDY    70  68  94 N3        29.74S
HYANNIS        CLOUDY    71  68  90 CALM      29.73R
CHATHAM        CLOUDY    72  68  87 NE5       29.74S
PROVINCETOWN   CLOUDY    69  67  93 CALM      29.75R
NANTUCKET      CLOUDY    67  65  93 N5        29.74R
MARTHAS VNYRD  CLOUDY    71  68  90 CALM      29.74R
$$

MAZALL-230900-
CENTRAL AND WESTERN MASSACHUSETTS

CITY           SKY/WX    TMP DP  RH WIND       PRES   REMARKS
WORCESTER      CLOUDY    69  59  70 N9        29.79S
FITCHBURG      MOCLDY    71  63  75 N6        29.79R
ORANGE         CLOUDY    63  62  97 CALM      29.79S
SPRINGFIELD    CLOUDY    68  62  80 N5        29.74F
WESTFIELD      CLOUDY    68  64  87 N6        29.75F
NORTH ADAMS    PTCLDY    60  58  92 CALM      29.80S
PITTSFIELD     PTCLDY    60  58  92 CALM      29.79F
$$

RIZALL-230900-
RHODE ISLAND

CITY           SKY/WX    TMP DP  RH WIND       PRES   REMARKS
PROVIDENCE     CLOUDY    73  67  81 W3        29.74F
NEWPORT        CLOUDY    72  68  87 N5        29.73F
BLOCK ISLAND   LGT RAIN  70  69  97 NE3       29.74S FOG
WESTERLY       CLOUDY    72  65  78 CALM      29.73S
$$

CTZALL-230900-
CONNECTICUT

CITY           SKY/WX    TMP DP  RH WIND       PRES   REMARKS
BRADLEY INTL   MOCLDY    69  64  84 N7        29.75F
HARTFORD       CLOUDY    72  66  81 N7        29.74S
BRIDGEPORT     LGT RAIN  75  67  76 N5        29.72S
DANBURY        CLOUDY    72  67  84 CALM      29.75F
GROTON         CLOUDY    72  64  76 N5        29.72S
NEW HAVEN      CLOUDY    74  67  78 N8        29.72S
CHESTER        MOCLDY    72  66  83 N3        29.74S
MERIDEN        CLOUDY    72  65  78 N7        29.73F
WILLIMANTIC    CLOUDY    72  69  90 N3        29.74F
OXFORD         CLOUDY    72  59  64 NE7       29.75R
$$

MEZ002-015-021-024-NHZ003-005-008-011-012-014-VTZ005-008-230900-
NORTHERN NEW ENGLAND

CITY           SKY/WX    TMP DP  RH WIND       PRES   REMARKS
PORTLAND ME    CLOUDY    67  49  52 NE10      29.83R
BANGOR ME      PTCLDY    53  43  68 NE3       29.86S
CONCORD NH     CLOUDY    68  62  81 CALM      29.80S
MANCHESTER NH  MOCLDY    71  56  58 NE9       29.78R
NASHUA NH      PTCLDY    71  63  75 E3        29.79R
PORTSMOUTH NH  MOCLDY    69  51  52 NE13G21   29.78S
JAFFREY NH     CLOUDY    63  63 100 CALM      29.82R
KEENE NH       CLOUDY    62  62 100 S3        29.80S FOG
BURLINGTON VT  CLEAR     59  56  89 CALM      29.83R
MT. WASHINGTON MOCLDY    48  18  29 NW17        N/A
$$

NYZ052-076-230900-
EASTERN NEW YORK

CITY           SKY/WX    TMP DP  RH WIND       PRES   REMARKS
ALBANY         PTCLDY    64  59  83 N5        29.78S
NEW YORK CITY  LGT RAIN  73  70  90 CALM      29.73R
$$

ANZALL-230900-
MARINE OBSERVATIONS

STATION/POSITION TIME  TEMP    WIND        PRES    VSBY  WAVE
                       AIR SEA DIR/SP/G                  HT/PER
                 (UTC) (F)     (DEG/KT/KT) (MB)    (MI)  (FT/S)
BOSTON BUOY      0750   71 69   30/ 17/ 19 1006.8S         1
BUZZARDS BAY     0700   71      30/  7/  7 1007.1F
NANTUCKET SOUND  0750      67              1007.0R         0
MASS BAY-STELLWA 0704   69 64   20/ 14/ 16 1006.6F         1/ 8
ISLE OF SHOALS   0700   69      50/ 25/ 26 1007.5F
S OF BLOCK IS    0755      75                N/A           2/ 7
$$

......................KEY.........................
  SKY/WX - SKY CONDITION/PRESENT WEATHER
  TMP    - TEMPERATURE IN FAHRENHEIT
  DWPT   - DEWPOINT IN FAHRENHEIT
  RH     - RELATIVE HUMIDITY IN PERCENT
  WIND   - DIRECTION AND SPEED IN MPH
  PRES   - MEAN SEA LEVEL PRESSURE IN INCHES OF HG
  WCI    - WIND CHILL INDEX
  VSB    - VISIBILITY IN MILES
  HX     - HEAT INDEX
  TC     - TEMPERATURE IN CELSIUS
  VRB    - VARIABLE WIND DIRECTION
  N/A    - NOT AVAILABLE




USA.gov is the U.S. government's official web portal to all federal, state and local government web resources and services.